Temp
-5 -5 -5 -5 -5 -5 -5 -5 -5 -5 -4 -4 -4 -4 -4 -4 -4 -4 -4 -5 -5 -6 -6 -6 -7 -7 -8 -8 -8 -8 -8 -8 -8 -9 -9 -8 -8 -8 -8 -8 -7 -7 -6
-6 -5 -5 -5 -5 -5 -5 -5 -5 -5 -5 -4 -4 -4 -4 -4 -4 -4 -4 -4 -5 -5 -6 -6 -6 -7 -7 -8 -8 -8 -8 -8 -8 -8 -8 -8 -8 -8 -7 -7 -7 -7 -7
-6 -6 -5 -5 -5 -6 -6 -6 -5 -5 -5 -5 -4 -5 -5 -5 -5 -4 -4 -4 -5 -5 -5 -6 -6 -7 -7 -8 -8 -8 -8 -8 -8 -8 -7 -8 -8 -8 -7 -7 -6 -6 -6
-6 -6 -5 -5 -5 -6 -5 -5 -5 -6 -6 -5 -5 -5 -5 -5 -5 -5 -5 -5 -5 -5 -5 -5 -6 -6 -7 -7 -7 -7 -7 -8 -8 -8 -7 -7 -7 -8 -7 -6 -6 -6 -6
-6 -6 -6 -6 -6 -5 -5 -5 -5 -5 -6 -6 -6 -5 -5 -6 -6 -6 -6 -6 -6 -6 -6 -6 -6 -6 -6 -7 -7 -7 -7 -7 -7 -7 -7 -7 -7 -7 -7 -7 -6 -6 -6
-7 -7 -6 -6 -6 -6 -6 -6 -5 -5 -5 -6 -6 -6 -6 -6 -6 -6 -6 -6 -6 -6 -6 -7 -6 -6 -7 -7 -7 -7 -7 -7 -7 -7 -6 -6 -6 -7 -7 -6 -5 -6 -6
-7 -7 -7 -7 -7 -7 -7 -6 -6 -6 -6 -5 -5 -5 -5 -6 -6 -6 -6 -6 -6 -6 -6 -6 -7 -7 -7 -7 -7 -7 -7 -7 -7 -7 -6 -7 -6 -7 -6 -6 -6 -7 -7
-7 -7 -7 -7 -8 -8 -7 -7 -7 -7 -7 -6 -6 -6 -6 -6 -6 -5 -5 -6 -5 -5 -6 -6 -7 -7 -7 -7 -7 -7 -6 -6 -6 -6 -6 -6 -7 -7 -7 -6 -7 -7 -7
-7 -8 -8 -8 -7 -7 -7 -6 -7 -7 -7 -7 -6 -6 -7 -6 -7 -6 -6 -5 -5 -5 -6 -6 -6 -6 -7 -7 -6 -6 -6 -6 -6 -7 -7 -6 -6 -7 -7 -7 -7 -6 -7
-8 -8 -8 -8 -8 -8 -8 -8 -8 -7 -7 -7 -6 -6 -7 -7 -7 -7 -6 -6 -5 -6 -6 -6 -7 -7 -7 -7 -7 -7 -6 -7 -7 -7 -7 -7 -7 -7 -7 -7 -6 -7 -7
-8 -8 -7 -8 -6 -8 -8 -8 -7 -7 -7 -7 -7 -7 -8 -8 -8 -8 -8 -6 -6 -6 -6 -7 -7 -7 -7 -8 -8 -7 -7 -7 -7 -6 -7 -7 -8 -7 -8 -8 -8 -8 -8
-9 -8 -8 -8 -8 -9 -8 -7 -8 -6 -7 -8 -7 -8 -8 -8 -9 -8 -7 -7 -7 -7 -7 -7 -7 -7 -7 -7 -8 -8 -8 -8 -7 -7 -7 -8 -8 -8 -8 -8 -8 -8 -8
-9 -9 -9 -9 -9 -9 -9 -8 -7 -8 -8 -8 -8 -9 -8 -8 -9 -8 -8 -7 -7 -7 -7 -7 -7 -7 -8 -7 -8 -7 -8 -8 -8 -8 -8 -8 -8 -8 -8 -8 -8 -8 -8
-9 -9 -9 -9 -9 -9 -9 -9 -7 -8 -9 -8 -8 -8 -8 -8 -8 -8 -8 -8 -7 -7 -7 -7 -7 -8 -8 -8 -7 -8 -8 -8 -8 -8 -8 -8 -8 -8 -8 -8 -8 -8 -8
-10 -10 -9 -9 -9 -9 -10 -9 -9 -9 -8 -8 -8 -9 -8 -9 -9 -8 -8 -8 -8 -8 -7 -8 -8 -7 -8 -8 -8 -8 -8 -9 -9 -9 -8 -8 -8 -7 -8 -8 -8 -8 -8
-10 -10 -10 -10 -10 -10 -10 -10 -10 -9 -9 -9 -8 -9 -9 -8 -8 -9 -9 -9 -8 -8 -7 -8 -8 -8 -7 -8 -8 -8 -8 -8 -9 -8 -8 -8 -8 -8 -8 -8 -7 -8 -8
-11 -11 -11 -11 -11 -10 -10 -9 -10 -10 -10 -10 -9 -9 -8 -8 -8 -8 -9 -9 -9 -9 -8 -8 -8 -8 -7 -7 -7 -7 -7 -8 -8 -8 -8 -8 -8 -8 -8 -7 -8 -8 -8
-11 -11 -11 -11 -10 -11 -10 -11 -11 -10 -10 -10 -10 -10 -10 -9 -8 -8 -10 -10 -9 -9 -9 -8 -8 -8 -8 -7 -7 -7 -7 -7 -7 -7 -7 -7 -7 -9 -8 -8 -7 -7 -8
-12 -12 -12 -12 -11 -11 -11 -11 -10 -10 -10 -10 -10 -10 -10 -10 -9 -9 -9 -10 -9 -9 -9 -9 -9 -8 -8 -8 -7 -7 -7 -7 -8 -7 -7 -7 -7 -8 -8 -7 -7 -7 -7
-13 -13 -13 -12 -12 -12 -12 -11 -11 -11 -11 -11 -10 -10 -11 -11 -10 -10 -9 -10 -9 -10 -9 -9 -9 -9 -9 -9 -8 -8 -8 -7 -7 -7 -7 -7 -7 -7 -8 -8 -8 -7 -8
-14 -13 -13 -13 -13 -12 -12 -12 -12 -12 -12 -11 -11 -11 -11 -11 -11 -10 -11 -11 -11 -10 -10 -10 -10 -10 -10 -9 -9 -8 -8 -7 -8 -7 -7 -7 -7 -7 -8 -8 -8 -8 -8
-14 -14 -14 -13 -13 -13 -13 -13 -13 -12 -12 -12 -12 -12 -11 -11 -11 -11 -12 -11 -11 -10 -10 -10 -10 -10 -10 -10 -9 -9 -9 -9 -8 -8 -7 -7 -7 -8 -8 -8 -8 -8 -8
-15 -15 -15 -15 -15 -15 -15 -15 -14 -14 -13 -13 -12 -13 -12 -12 -12 -11 -11 -11 -11 -11 -11 -11 -11 -10 -10 -10 -10 -10 -10 -9 -9 -8 -8 -8 -8 -8 -8 -9 -9 -9 -8
-15 -15 -15 -15 -15 -15 -15 -16 -16 -15 -15 -14 -14 -13 -13 -13 -13 -13 -13 -13 -12 -12 -11 -11 -11 -11 -11 -11 -10 -10 -10 -10 -10 -9 -9 -9 -8 -8 -9 -9 -9 -9 -9
-16 -16 -16 -16 -15 -15 -15 -16 -16 -16 -16 -16 -15 -15 -14 -14 -14 -14 -14 -14 -13 -13 -13 -12 -12 -11 -11 -11 -10 -10 -11 -11 -10 -10 -10 -10 -10 -9 -9 -9 -9 -9 -9
-17 -17 -17 -17 -16 -17 -16 -16 -16 -16 -16 -16 -16 -16 -15 -15 -15 -14 -14 -14 -14 -14 -14 -13 -13 -12 -12 -11 -11 -11 -11 -11 -11 -11 -10 -10 -10 -10 -10 -10 -10 -9 -9
Height
5925 5928 5931 5934 5937 5940 5942 5945 5947 5949 5950 5952 5955 5957 5958 5960 5961 5962 5962 5964 5964 5965 5965 5965 5966 5966 5966 5966 5966 5966 5965 5963 5961 5960 5954 5951 5948 5942 5939 5934 5929 5923 5919
5920 5923 5925 5928 5931 5935 5938 5939 5943 5945 5947 5948 5950 5953 5955 5957 5958 5958 5959 5960 5961 5962 5961 5962 5962 5963 5963 5962 5961 5961 5960 5958 5955 5954 5952 5947 5943 5938 5934 5930 5926 5920 5914
5913 5917 5920 5924 5927 5930 5933 5935 5937 5941 5943 5944 5947 5949 5951 5953 5955 5955 5956 5957 5958 5959 5959 5959 5959 5959 5959 5958 5957 5956 5955 5953 5951 5949 5947 5943 5939 5933 5928 5924 5920 5914 5909
5908 5912 5914 5918 5921 5924 5927 5929 5931 5935 5937 5940 5942 5944 5946 5947 5950 5951 5953 5954 5954 5953 5954 5954 5954 5954 5954 5953 5951 5950 5949 5947 5945 5942 5941 5937 5934 5928 5922 5917 5913 5907 5902
5905 5907 5910 5912 5915 5918 5921 5922 5925 5928 5931 5934 5936 5939 5940 5942 5944 5945 5946 5947 5948 5949 5948 5948 5948 5948 5948 5947 5946 5944 5941 5940 5939 5935 5933 5930 5927 5921 5917 5913 5908 5904 5898
5902 5904 5906 5908 5910 5913 5915 5917 5918 5921 5923 5925 5928 5929 5931 5934 5936 5938 5939 5939 5940 5941 5943 5943 5942 5942 5942 5941 5940 5937 5934 5931 5931 5928 5925 5922 5919 5916 5911 5907 5902 5898 5893
5898 5900 5902 5904 5906 5908 5909 5912 5915 5915 5917 5919 5920 5923 5926 5927 5928 5930 5931 5931 5932 5933 5935 5936 5935 5934 5933 5933 5932 5928 5926 5925 5922 5920 5917 5916 5912 5909 5904 5900 5896 5890 5884
5893 5895 5898 5900 5902 5905 5906 5907 5909 5910 5912 5912 5914 5914 5916 5919 5919 5921 5921 5922 5924 5925 5926 5926 5926 5926 5925 5923 5921 5918 5918 5917 5916 5914 5911 5911 5906 5902 5898 5894 5891 5886 5881
5886 5888 5891 5892 5895 5896 5897 5900 5901 5901 5902 5903 5904 5905 5906 5908 5909 5910 5911 5913 5916 5917 5917 5916 5917 5916 5916 5914 5912 5911 5911 5912 5910 5907 5905 5902 5899 5896 5892 5889 5883 5877 5874
5878 5880 5881 5885 5887 5887 5892 5892 5891 5883 5891 5892 5893 5893 5893 5897 5899 5901 5902 5904 5907 5909 5910 5910 5910 5909 5908 5907 5905 5903 5904 5904 5902 5900 5898 5895 5894 5890 5887 5883 5869 5863 5864
5870 5871 5872 5874 5875 5879 5883 5882 5875 5872 5877 5882 5885 5885 5885 5888 5890 5892 5893 5895 5898 5899 5900 5902 5901 5901 5903 5900 5897 5895 5896 5895 5894 5893 5892 5891 5888 5885 5881 5877 5874 5867 5859
5859 5861 5864 5868 5867 5868 5868 5868 5870 5843 5855 5868 5872 5877 5878 5879 5881 5882 5884 5887 5889 5891 5894 5894 5893 5893 5893 5891 5890 5888 5885 5885 5886 5886 5885 5883 5881 5879 5875 5872 5868 5863 5858
5847 5850 5851 5855 5857 5859 5859 5862 5861 5855 5851 5860 5862 5867 5868 5869 5870 5870 5876 5879 5881 5883 5885 5886 5886 5885 5885 5884 5881 5879 5878 5878 5878 5879 5878 5877 5874 5871 5869 5868 5864 5860 5854
5834 5837 5840 5840 5842 5843 5847 5850 5850 5847 5846 5844 5850 5852 5856 5858 5861 5864 5869 5871 5873 5874 5876 5877 5878 5877 5876 5875 5874 5872 5871 5870 5870 5871 5871 5869 5867 5867 5863 5862 5859 5854 5849
5826 5826 5827 5829 5833 5832 5834 5838 5840 5841 5842 5843 5844 5844 5848 5850 5854 5855 5858 5862 5864 5864 5866 5868 5870 5869 5869 5868 5867 5865 5862 5862 5862 5861 5859 5861 5860 5860 5857 5854 5851 5848 5843
5813 5816 5817 5817 5819 5822 5823 5826 5829 5832 5833 5835 5837 5839 5842 5844 5846 5848 5849 5851 5853 5855 5857 5857 5859 5859 5859 5859 5859 5858 5856 5853 5854 5856 5856 5854 5853 5851 5850 5847 5844 5841 5837
5797 5801 5804 5806 5807 5809 5814 5815 5817 5819 5822 5825 5828 5830 5831 5833 5833 5835 5836 5837 5840 5844 5845 5845 5847 5848 5850 5850 5850 5850 5849 5849 5848 5848 5846 5845 5843 5841 5838 5838 5836 5833 5831
5783 5786 5789 5792 5795 5797 5800 5802 5804 5805 5806 5811 5814 5816 5819 5821 5822 5822 5823 5823 5827 5830 5832 5834 5835 5837 5837 5838 5839 5840 5841 5841 5840 5839 5838 5836 5834 5828 5818 5830 5828 5827 5824
5768 5771 5774 5777 5779 5781 5783 5785 5788 5791 5792 5793 5796 5799 5801 5804 5807 5808 5809 5810 5813 5815 5817 5819 5822 5824 5825 5825 5827 5828 5828 5829 5829 5829 5829 5828 5825 5824 5821 5820 5820 5818 5815
5753 5756 5758 5761 5762 5764 5767 5769 5771 5773 5774 5776 5779 5779 5785 5785 5787 5792 5793 5795 5799 5801 5803 5804 5806 5809 5810 5811 5813 5814 5815 5816 5817 5817 5815 5815 5815 5813 5811 5810 5809 5808 5806
5737 5739 5743 5744 5745 5748 5751 5752 5754 5756 5757 5758 5760 5764 5766 5766 5765 5770 5773 5776 5780 5782 5787 5789 5790 5791 5794 5795 5796 5798 5799 5801 5803 5803 5802 5802 5801 5801 5800 5799 5798 5797 5795
5721 5721 5723 5726 5727 5730 5731 5733 5735 5737 5740 5741 5741 5743 5748 5747 5749 5753 5756 5756 5759 5763 5766 5770 5772 5774 5776 5778 5779 5780 5782 5784 5786 5788 5787 5787 5787 5787 5786 5787 5786 5785 5784
5703 5703 5704 5706 5708 5709 5714 5714 5716 5718 5720 5723 5725 5728 5730 5730 5730 5732 5736 5737 5740 5744 5747 5748 5752 5754 5756 5759 5762 5764 5767 5767 5769 5770 5771 5771 5771 5772 5771 5771 5772 5772 5772
5685 5686 5688 5689 5689 5691 5694 5697 5699 5701 5702 5703 5704 5706 5710 5710 5713 5715 5716 5719 5723 5725 5727 5729 5733 5736 5739 5741 5743 5746 5750 5751 5752 5754 5754 5755 5755 5756 5758 5758 5758 5759 5760
5662 5664 5666 5669 5670 5672 5675 5677 5679 5682 5684 5686 5687 5688 5689 5692 5694 5695 5697 5701 5705 5705 5707 5710 5712 5717 5719 5721 5725 5728 5732 5734 5736 5738 5740 5741 5742 5742 5744 5745 5745 5746 5747
5638 5640 5644 5647 5648 5651 5654 5657 5659 5661 5664 5666 5668 5671 5672 5674 5675 5677 5679 5681 5684 5688 5690 5689 5693 5695 5697 5700 5705 5706 5711 5714 5717 5720 5723 5725 5726 5727 5729 5729 5731 5733 5734
Wind_Speed
27 26 28 27 26 29 25 24 24 25 27 26 25 24 24 23 22 22 22 20 22 22 20 21 21 21 23 24 24 27 29 31 31 32 35 32 30 29 27 29 32 33 32
26 26 25 28 28 28 29 27 28 28 28 28 26 26 25 26 26 26 26 26 25 25 25 24 25 26 25 27 28 30 31 33 32 28 29 28 27 27 27 26 29 33 35
24 24 25 25 26 29 31 31 30 31 31 31 30 30 29 29 28 27 28 28 28 30 30 30 29 29 29 30 31 32 33 31 30 28 22 23 26 32 31 30 30 32 33
23 27 25 25 27 28 28 29 31 31 33 33 32 31 31 31 31 30 29 30 30 31 32 33 32 33 32 32 32 31 32 31 31 28 25 26 28 32 33 32 34 37 37
15 18 23 27 29 30 30 29 30 30 30 32 33 32 33 33 32 31 31 30 29 28 27 28 29 30 30 30 29 31 33 33 31 32 31 29 31 33 33 32 34 35 36
16 15 19 23 27 30 31 32 32 31 33 33 34 35 36 36 36 35 35 34 34 33 31 30 29 30 30 31 31 34 36 37 34 33 33 33 32 31 32 33 34 35 37
23 23 23 26 24 24 26 31 34 32 34 34 35 37 37 38 39 38 38 38 37 36 35 35 35 34 35 34 34 37 38 38 38 38 37 35 33 32 36 36 36 38 39
24 29 35 30 28 32 29 30 28 29 28 28 29 31 36 38 39 40 41 41 40 38 36 35 36 34 34 36 36 39 39 39 37 36 35 31 31 30 34 35 35 34 34
23 27 32 34 34 37 34 39 39 34 33 28 32 35 35 33 35 41 42 41 40 39 37 37 37 37 36 38 39 40 39 37 36 35 33 32 32 33 35 35 35 36 37
31 31 34 36 46 29 39 45 49 36 36 31 27 28 30 30 34 40 41 40 38 36 36 35 34 35 35 36 38 38 37 34 34 32 31 33 32 34 34 34 40 37 42
37 41 45 40 40 39 47 47 58 43 37 33 30 28 29 27 30 35 35 34 33 32 32 32 32 33 32 34 37 38 37 34 33 33 32 30 32 31 30 29 30 39 46
44 46 46 42 44 45 47 45 59 42 45 39 34 33 37 32 33 35 35 32 34 31 29 28 31 29 29 30 32 36 37 34 31 30 28 25 23 20 23 27 33 39 44
43 40 42 42 45 47 47 41 47 49 34 36 35 35 34 36 41 34 31 34 36 31 25 25 30 29 28 29 33 33 36 34 33 28 23 21 24 23 28 31 30 40 43
48 47 48 49 46 49 45 41 37 42 36 37 35 38 39 41 40 38 34 33 33 28 28 28 31 29 27 28 28 28 28 31 30 31 26 26 28 29 32 33 35 40 41
54 56 56 56 53 55 50 37 37 38 37 28 33 29 32 30 29 30 32 34 36 36 33 31 33 31 30 26 24 24 26 34 33 30 29 28 33 33 34 34 36 38 40
61 60 60 61 58 56 52 46 42 40 36 37 43 40 35 36 36 38 38 38 38 37 37 36 37 36 34 28 24 23 26 26 24 34 37 34 34 34 32 37 37 40 43
64 63 61 60 61 62 60 55 52 48 51 46 43 43 45 45 47 47 44 43 43 43 42 43 40 37 35 32 27 25 27 29 30 32 35 39 42 39 36 37 39 44 42
66 65 64 65 65 61 57 60 56 56 58 56 56 56 56 55 53 54 52 47 45 43 43 43 42 44 39 36 35 32 29 28 31 34 35 36 40 47 32 39 42 43 41
62 63 63 62 61 60 60 61 64 62 62 55 62 65 64 62 59 57 55 54 52 51 49 47 44 46 47 45 43 42 41 42 46 44 41 39 40 43 44 46 42 43 42
60 61 62 63 64 63 63 64 65 63 64 62 60 62 65 68 70 63 63 59 60 58 55 54 53 51 50 50 54 50 50 53 57 48 50 48 43 46 48 47 44 42 42
61 63 63 65 64 66 65 63 63 62 64 65 66 63 59 64 77 78 74 71 69 67 67 65 61 58 61 62 59 59 61 64 67 58 55 48 45 45 49 49 47 43 40
56 58 61 62 65 65 64 64 66 68 67 62 57 59 63 59 69 69 55 66 74 73 72 73 68 66 63 57 59 58 55 56 54 50 48 50 50 48 49 47 47 48 46
52 56 57 56 54 54 51 52 53 53 55 59 62 62 57 52 51 58 61 63 55 68 63 62 64 67 68 71 69 64 62 54 50 48 47 46 47 46 46 44 44 44 46
57 56 57 56 57 57 56 54 53 51 52 52 51 54 53 51 49 49 53 55 57 56 58 55 57 57 54 54 55 54 52 48 48 48 47 44 43 43 41 36 35 37 38
60 62 64 64 63 60 59 59 58 57 56 57 56 55 54 54 53 53 52 56 57 60 61 61 63 65 62 60 58 56 57 56 53 51 49 45 41 41 40 37 33 34 35
63 64 63 63 65 65 66 65 64 63 63 62 63 62 65 63 63 61 61 57 56 58 59 62 63 64 64 64 64 64 63 64 62 61 57 54 51 49 49 45 44 42 39
Wind_Direction
231 231 233 238 240 241 236 239 238 233 232 228 231 233 234 236 235 238 241 243 246 250 254 258 263 269 276 283 293 298 301 305 308 312 315 320 325 327 324 321 320 322 323
231 230 229 234 239 244 246 244 245 244 243 241 237 239 242 243 246 249 251 253 253 253 255 258 265 271 277 283 289 292 296 300 307 314 314 316 316 316 314 314 315 316 317
229 231 229 233 236 243 246 248 246 246 246 247 245 246 247 251 255 257 258 260 261 263 265 267 269 273 276 280 285 291 297 302 307 311 312 313 315 315 311 314 313 308 310
233 229 230 234 238 240 242 247 248 248 247 246 247 250 251 254 258 261 265 266 266 267 269 273 273 275 278 283 289 294 298 302 304 306 309 308 310 308 311 314 316 320 319
235 239 235 239 240 243 244 243 248 251 253 252 253 255 258 258 258 259 261 264 267 270 271 274 277 279 283 285 288 291 293 295 300 302 304 305 307 307 309 310 310 313 318
231 237 239 241 245 247 249 251 247 247 249 250 249 249 253 257 259 260 260 262 263 266 270 273 275 277 280 282 287 289 291 293 295 296 297 299 301 304 303 306 313 320 319
237 240 244 246 244 244 249 253 252 254 255 255 255 257 258 260 262 261 261 261 263 266 270 272 274 276 278 280 282 281 282 286 291 293 297 300 301 305 305 314 320 320 322
246 252 251 252 254 252 257 258 256 256 259 261 263 264 263 264 264 261 260 261 263 267 266 268 269 271 274 276 275 276 280 283 285 290 291 295 293 294 301 309 315 315 318
259 254 254 256 259 259 257 261 260 259 261 244 253 254 263 264 264 261 260 263 266 266 266 267 269 270 271 272 278 284 287 293 294 296 296 296 298 301 305 312 314 313 318
255 258 261 259 268 248 266 264 257 241 253 253 251 254 255 251 258 257 257 262 268 273 275 276 277 276 277 279 282 284 287 290 289 288 289 293 298 300 306 309 304 321 322
251 257 260 266 261 272 267 276 262 252 238 240 238 241 233 237 248 249 253 258 261 265 271 275 277 279 282 282 282 284 285 282 281 284 287 295 297 302 305 310 314 315 332
256 257 256 259 265 271 269 272 273 242 238 231 229 235 234 241 249 249 250 255 261 261 269 269 271 278 282 282 283 281 282 281 279 279 287 293 297 295 310 314 314 325 330
249 251 256 255 259 261 265 271 260 264 231 231 226 230 234 234 243 248 252 259 265 263 260 264 274 277 283 278 288 294 273 278 280 281 280 282 290 300 312 312 312 322 328
246 247 251 257 258 263 265 265 270 277 282 276 232 225 234 235 233 242 254 263 263 271 266 273 274 272 280 279 288 299 279 273 266 278 273 280 287 294 299 308 310 319 326
248 255 258 262 263 265 270 272 273 268 268 248 231 239 246 252 249 253 255 256 258 263 264 264 266 270 270 280 290 298 296 261 267 269 271 277 284 287 296 299 305 317 325
252 254 257 263 262 262 265 265 266 270 265 256 254 266 259 257 256 253 251 255 259 261 263 259 262 266 268 275 279 282 281 281 277 275 276 278 282 284 289 297 306 313 318
252 253 254 256 259 260 262 264 264 256 258 261 258 253 246 243 247 250 255 258 260 256 258 259 260 258 261 265 271 280 284 281 279 282 288 291 293 288 289 296 306 309 311
252 255 256 256 257 260 258 260 262 260 262 258 259 261 259 256 251 252 253 252 254 257 257 259 261 260 259 258 264 270 277 282 286 290 289 288 287 295 292 303 309 315 310
253 253 254 255 256 258 259 259 260 262 260 262 256 255 259 259 258 256 254 256 258 258 257 258 262 262 263 260 262 265 270 280 289 292 290 291 292 292 292 297 301 304 305
256 258 260 260 261 261 261 262 261 261 264 266 264 260 248 250 255 254 255 255 259 259 260 257 261 262 265 266 262 263 269 275 282 283 288 287 287 288 288 291 295 300 303
256 257 257 260 261 261 262 262 264 268 269 272 268 259 263 263 253 252 251 252 253 254 259 260 261 261 267 271 268 269 269 273 275 281 282 279 277 281 281 285 289 292 297
257 260 262 263 264 265 266 268 268 267 268 270 273 273 269 266 266 260 262 254 251 254 253 259 261 261 263 265 267 271 273 274 278 273 270 272 274 275 277 280 283 288 292
258 257 258 260 261 261 260 262 264 266 267 266 264 261 265 267 265 267 264 266 263 253 261 256 255 259 262 262 263 267 271 269 270 268 267 268 270 271 274 275 276 281 284
255 256 257 257 258 258 260 259 258 260 256 257 258 262 263 264 263 264 259 257 257 254 248 247 252 250 254 254 253 253 256 258 262 265 264 262 263 266 268 272 274 277 280
257 257 255 254 256 257 258 259 257 256 254 250 249 246 246 252 250 251 255 259 254 253 249 248 249 251 251 250 251 253 253 253 255 257 259 258 261 261 266 268 269 274 277
257 254 254 254 256 256 255 255 256 256 256 255 252 249 246 248 247 246 247 249 250 253 258 254 253 252 252 249 249 251 253 252 254 256 258 260 262 261 264 267 268 273 273